Showing default

HYDRA-2, 67389

Orbit data source: Space-Track

HYDRA-2, 67389 is a payload satellite owned by AISTech (ES) in SSO that was launched on Sun, 11 Jan 2026 UTC via an FALCON 9 launch vehicle from the Air Force Western Test Range (AFWTR). Payload-class satellites include a variety of spacecraft equipped with specific instruments for various scientific and technological missions. These include communications satellites like Starlink; space stations such as the ISS; scientific satellites like the Hubble; Earth observation satellites from companies like Planet Labs, Umbra, and HawkEye 360; GPS; miniature CubeSats for education and research; and military/defense satellites.

Loading next visibility...
Identifier
67389, 2026-004AC
Orbit
SSO
Country
Flag of ESES / SPN
Related business
Manufacturer
Endurosat
Mission
Operational Commercial Weather
Bus & Motor
CUBESAT 6U, Unknown motor
Mass
10 kg wet, 10 kg dry
Launch date (UTC)
2026-01-11 (4 months ago)
Launch vehicle
FALCON 9
Launch site
Air Force Western Test Range (AFWTR)
Object type
Payload
Rocket body
Debris
Shape & HBR
Box + 2 Pan, 0.5 m
Radar Cross Section
0.138 m²

Expand to show TLE details & history
Last TLE update: 7 hours ago

TLE from 7 hours ago
0 HYDRA-2
1 67389U 26004AC  26146.51679622  .00005021  00000-0  24821-3 0  9990
2 67389  97.4581 145.8735 0005031  68.4313 291.7457 15.18280165 20460
Epoch: 2026-05-26T12:24Z
TLE epoch observation values (Epoch: 2026-05-26T12:24:11.193Z)
Latitude
Longitude
75.73776°
Altitude
512.842 km
Speed
7.608 km/s
True Right ascension
09h 43m 29s
True Declination
0° 00' 00"
Sunlit
Object was in daylight at epoch
Visualization orbit readout
Latitude
Unknown
Longitude
Unknown
Altitude
Unknown
Speed
Unknown
Apparent Right ascension
Unknown
Apparent Declination
Unknown
Sunlit
N/A
Visualization observer readout
Local Sidereal Time
04:33:10
Azimuth
Unknown
Elevation
Unknown
Doppler factor
Unknown
Orbital elements
Apogee altitude
511.473 km
Perigee altitude
504.544 km
Semi-major axis
6,886.146 km
Eccentricity
0.0005
Inclination
97.4581°
RAAN
145.8735°
Arg. of periapsis
68.4313°
True anomaly
291.69214°
Mean anomaly
291.7457°
Eccentric anomaly
291.71892°
Mean motion
3.79821 °/min
Orbital period
94.78 mins
BSTAR
0.00024821
Loading maneuver chart data...
Computing Atmospheric mass density...
Loading historical data...
Loading historical data...
Loading historical data...
Loading historical data...
Loading historical data...
Loading historical data...
Loading historical data...

Documentation

Showing up to 5 results
|